DW9840 Weather Reports


Display with metric or nautical units.
time (UTC)temp
F
wind
direction
speed
MPH
gust
MPH
rain 1hr
in
rain 24hr
in
rain mn
in
humidity
%
barometer
mb
20260507184512 65 212 0.0 1.0 0.00 0.00 0.00 42 1018.5
20260507183012 65 256 0.0 0.0 0.00 0.00 0.00 27 1018.8
20260507181547 65 181 0.0 0.0 0.00 0.00 0.00 9 1018.8
20260507180047 65 182 0.0 0.0 0.00 0.00 0.00 3 1018.8
20260507174521 63 233 0.0 2.0 0.00 0.00 0.00 3 1018.7
20260507173029 61 179 0.0 0.0 0.00 0.00 0.00 3 1018.8
20260507171554 59 235 0.0 0.0 0.00 0.00 0.00 3 1018.9
20260507170059 59 155 0.0 0.0 0.00 0.00 0.00 3 1018.9
20260507164528 58 259 0.0 0.0 0.00 0.00 0.00 3 1018.9
20260507163023 57 219 0.0 0.0 0.00 0.00 0.00 3 1018.9
20260507161502 56 219 0.0 0.0 0.00 0.00 0.00 3 1018.7
20260507160059 55 127 0.0 0.0 0.00 0.00 0.00 3 1018.7
20260507154540 55 229 0.0 0.0 0.00 0.00 0.00 3 1018.7
20260507153033 55 162 0.0 0.0 0.00 0.00 0.00 3 1018.7
20260507151509 54 180 0.0 1.0 0.00 0.00 0.00 3 1018.7
20260507150012 54 236 0.0 0.0 0.00 0.00 0.00 3 1018.7
20260507144544 54 129 0.0 0.0 0.00 0.00 0.00 3 1018.7
20260507143040 54 131 0.0 0.0 0.00 0.00 0.00 3 1018.6
20260507141517 0 0.0 0.0 0.00 0.00 0.00 1018.4
20260507140013 0 0.0 0.0 0.00 0.00 0.00 1018.3
20260507134552 0 0.0 0.0 0.00 0.00 0.00 1018.2
20260507133101 0 0.0 0.0 0.00 0.00 0.00 1018.0
20260507131531 0 0.0 0.0 0.00 0.00 0.00 1017.9
20260507130021 0 0.0 0.0 0.00 0.00 0.00 1017.8
20260507124559 0 0.0 0.0 0.00 0.00 0.00 1017.8
20260507123056 0 0.0 0.0 0.00 0.00 0.00 1017.7
20260507121534 0 0.0 0.0 0.00 0.00 0.00 1017.7
20260507120029 55 177 0.0 0.0 0.00 0.00 0.00 3 1017.8
20260507114509 55 225 0.0 0.0 0.00 0.00 0.00 3 1017.9
20260507113010 55 177 0.0 0.0 0.00 0.00 0.00 3 1017.9
20260507111542 55 173 0.0 0.0 0.00 0.00 0.00 3 1018.0
20260507110037 55 224 0.0 0.0 0.00 0.00 0.00 3 1017.9
20260507104515 55 189 0.0 0.0 0.00 0.00 0.00 3 1018.0
20260507103013 56 219 0.0 0.0 0.00 0.00 0.00 3 1018.1
20260507101549 56 203 0.0 0.0 0.00 0.00 0.00 3 1018.1
20260507100044 56 113 0.0 0.0 0.00 0.00 0.00 3 1018.2
20260507094522 56 167 0.0 0.0 0.00 0.00 0.00 3 1018.2
20260507093019 56 169 0.0 0.0 0.00 0.00 0.00 3 1018.3
20260507091501 56 129 0.0 0.0 0.00 0.00 0.00 3 1018.4
20260507090100 56 134 0.0 0.0 0.00 0.00 0.00 3 1018.4
20260507084559 56 93 0.0 0.0 0.00 0.00 0.00 3 1018.5
20260507083050 56 203 0.0 0.0 0.00 0.00 0.00 3 1018.3
20260507081546 56 194 0.0 1.0 0.00 0.00 0.00 3 1018.3
20260507080043 56 198 0.0 1.0 0.00 0.00 0.00 3 1018.3
20260507074535 56 129 0.0 1.0 0.00 0.00 0.00 3 1018.3
20260507073031 56 225 0.0 0.0 0.00 0.00 0.00 3 1018.3
20260507071508 56 190 0.0 0.0 0.00 0.00 0.00 3 1018.2
20260507070002 57 197 0.0 0.0 0.00 0.00 0.00 3 1018.1
20260507064603 57 165 0.0 1.0 0.00 0.00 0.00 3 1017.9
20260507063035 57 222 0.0 0.0 0.00 0.00 0.00 3 1017.9
20260507061532 57 205 0.0 0.0 0.00 0.00 0.00 3 1017.8
20260507060010 58 191 0.0 1.0 0.00 0.00 0.00 3 1017.8
20260507054515 58 207 0.0 0.0 0.00 0.00 0.00 3 1017.7
20260507053044 59 187 0.0 0.0 0.00 0.00 0.00 3 1017.8
20260507051539 59 155 0.0 0.0 0.00 0.00 0.00 3 1017.8
20260507050021 60 166 0.0 0.0 0.00 0.00 0.00 3 1017.7
20260507044516 60 169 0.0 1.0 0.00 0.00 0.00 3 1017.6
20260507043055 61 149 0.0 0.0 0.00 0.00 0.00 3 1017.6
20260507041553 61 195 0.0 0.0 0.00 0.00 0.00 3 1017.5
20260507040029 61 188 0.0 5.0 0.00 0.00 0.00 3 1017.6
20260507034525 61 211 0.0 3.0 0.00 0.00 0.00 3 1017.6
20260507033005 61 211 0.0 9.0 0.00 0.00 0.00 3 1017.4
20260507031558 62 123 0.0 2.0 0.00 0.00 0.00 11 1017.4
20260507030037 62 219 0.0 3.0 0.00 0.00 0.00 30 1017.3
20260507024533 62 219 0.0 5.0 0.00 0.00 0.00 41 1017.3
20260507023011 63 266 0.0 7.0 0.00 0.00 0.00 52 1017.1
20260507021506 64 252 0.0 2.0 0.00 0.00 0.00 55 1017.1
20260507020106 65 150 0.0 7.0 0.00 0.00 0.00 58 1017.4
20260507014541 65 216 1.0 10.0 0.00 0.00 0.00 59 1017.4
20260507013039 66 240 0.0 7.0 0.00 0.00 0.00 60 1017.4
20260507011515 66 200 1.0 9.0 0.00 0.00 0.00 61 1017.4
20260507010059 66 165 1.0 9.0 0.00 0.00 0.00 62 1017.4
20260507004559 67 160 0.0 10.0 0.00 0.00 0.00 62 1017.4
20260507003035 67 214 2.0 11.0 0.00 0.00 0.00 62 1017.4
20260507001522 67 216 1.0 10.0 0.00 0.00 0.00 63 1017.4
20260506234556 69 199 1.0 10.0 0.00 0.00 0.00 62 1017.4
20260506233035 69 172 0.0 10.0 0.00 0.00 0.00 62 1017.5
20260506231529 70 252 0.0 6.0 0.00 0.00 0.00 61 1017.6
20260506230009 70 167 0.0 5.0 0.00 0.00 0.00 61 1017.7
20260506224503 70 208 1.0 7.0 0.00 0.00 0.00 62 1017.8
20260506223046 70 200 1.0 10.0 0.00 0.00 0.00 62 1018.0
20260506221538 71 193 1.0 9.0 0.00 0.00 0.00 61 1018.2
20260506220020 72 151 0.0 8.0 0.00 0.00 0.00 61 1018.2
20260506214529 72 238 0.0 3.0 0.00 0.00 0.00 61 1018.3
20260506213014 72 160 1.0 10.0 0.00 0.00 0.00 60 1018.5
20260506211506 73 214 0.0 3.0 0.00 0.00 0.00 60 1018.5
20260506210003 73 200 0.0 4.0 0.00 0.00 0.00 61 1018.5
20260506204558 73 170 0.0 3.0 0.00 0.00 0.00 60 1018.6
20260506203053 73 255 0.0 1.0 0.00 0.00 0.00 60 1018.8
20260506201548 72 210 0.0 4.0 0.00 0.00 0.00 60 1018.8
20260506200026 73 217 0.0 4.0 0.00 0.00 0.00 60 1019.0
20260506194522 72 187 0.0 0.0 0.00 0.00 0.00 60 1019.1
20260506193100 73 163 0.0 1.0 0.00 0.00 0.00 60 1019.2
20260506191555 74 230 0.0 1.0 0.00 0.00 0.00 59 1019.4
20260506190034 72 277 0.0 0.0 0.00 0.00 0.00 60 1019.4